N744LA CYVR-PAKN

Flight info

Callsign N744LA
Flight time N/A
Altitude 43000
Route YZT J523 YZP KATCH B757 CJAYY J123 KOKOZ
Aircraft C700/L-VGDW/C

Departure

Time N/A
Airport Vancouver International Airport (CYVR)

Arrival

Time 2026-04-27 15:14
Airport King Salmon Airport (PAKN)
Time Latitude Longitude Altitude Speed Heading
2026-04-27 14:01 55.78101 -142.26205 43191 ft 450 kts 290°
2026-04-27 14:02 55.80608 -142.36368 43193 ft 449 kts 290°
2026-04-27 14:02 55.83098 -142.46510 43188 ft 451 kts 290°
2026-04-27 14:03 55.85604 -142.56759 43186 ft 453 kts 290°
2026-04-27 14:03 55.88121 -142.67102 43179 ft 455 kts 289°
2026-04-27 14:04 55.90631 -142.77468 43181 ft 453 kts 289°
2026-04-27 14:04 55.93107 -142.87744 43170 ft 451 kts 289°
2026-04-27 14:05 55.95583 -142.98065 43169 ft 452 kts 289°
2026-04-27 14:05 55.98045 -143.08383 43171 ft 455 kts 289°
2026-04-27 14:06 56.00526 -143.18821 43169 ft 458 kts 289°
2026-04-27 14:06 56.02994 -143.29261 43162 ft 457 kts 289°
2026-04-27 14:07 56.05456 -143.39722 43163 ft 455 kts 289°
2026-04-27 14:07 56.07886 -143.50102 43160 ft 453 kts 288°
2026-04-27 14:08 56.10321 -143.60558 43155 ft 456 kts 288°
2026-04-27 14:08 56.12762 -143.71082 43153 ft 459 kts 288°
2026-04-27 14:09 56.15220 -143.81735 43147 ft 460 kts 288°
2026-04-27 14:09 56.17645 -143.92297 43144 ft 458 kts 288°
2026-04-27 14:10 56.20063 -144.02884 43140 ft 456 kts 288°
2026-04-27 14:10 56.22449 -144.13398 43134 ft 458 kts 288°
2026-04-27 14:11 56.24868 -144.24100 43134 ft 461 kts 288°
2026-04-27 14:11 56.27264 -144.34756 43128 ft 464 kts 288°
2026-04-27 14:12 56.29677 -144.45540 43123 ft 462 kts 287°
2026-04-27 14:12 56.32055 -144.56229 43122 ft 460 kts 287°
2026-04-27 14:13 56.34414 -144.66881 43119 ft 460 kts 287°
2026-04-27 14:13 56.36789 -144.77670 43116 ft 464 kts 287°
2026-04-27 14:14 56.39173 -144.88541 43109 ft 467 kts 287°
2026-04-27 14:14 56.41549 -144.99441 43111 ft 465 kts 287°
2026-04-27 14:15 56.43902 -145.10295 43103 ft 463 kts 287°
2026-04-27 14:15 56.46242 -145.21146 43102 ft 464 kts 287°
2026-04-27 14:16 56.48585 -145.32069 43092 ft 467 kts 287°
2026-04-27 14:16 56.50920 -145.43004 43085 ft 470 kts 287°
2026-04-27 14:17 56.53266 -145.54053 43089 ft 468 kts 287°
2026-04-27 14:17 56.55578 -145.65009 43080 ft 466 kts 286°
2026-04-27 14:18 56.57887 -145.76009 43076 ft 468 kts 286°
2026-04-27 14:18 56.60194 -145.87054 43070 ft 471 kts 286°
2026-04-27 14:19 56.62522 -145.98263 43068 ft 473 kts 286°
2026-04-27 14:19 56.64828 -146.09418 43062 ft 470 kts 286°
2026-04-27 14:20 56.67101 -146.20488 43058 ft 468 kts 286°
2026-04-27 14:20 56.69369 -146.31598 43056 ft 471 kts 285°
2026-04-27 14:21 56.71647 -146.42809 43049 ft 474 kts 285°
2026-04-27 14:21 56.73934 -146.54131 43044 ft 474 kts 285°
2026-04-27 14:22 56.76184 -146.65333 43045 ft 472 kts 285°
2026-04-27 14:22 56.78433 -146.76599 43038 ft 471 kts 285°
2026-04-27 14:23 56.80660 -146.87812 43026 ft 471 kts 285°
2026-04-27 14:23 56.82896 -146.99139 43027 ft 474 kts 285°
2026-04-27 14:24 56.85116 -147.10447 43021 ft 477 kts 285°
2026-04-27 14:24 56.87354 -147.21916 43022 ft 477 kts 285°
2026-04-27 14:25 56.89557 -147.33269 43014 ft 474 kts 285°
2026-04-27 14:25 56.91751 -147.44650 43011 ft 472 kts 285°
2026-04-27 14:26 56.93924 -147.55988 43006 ft 476 kts 284°
2026-04-27 14:26 56.96107 -147.67436 42998 ft 479 kts 284°
2026-04-27 14:27 56.98294 -147.78974 42995 ft 477 kts 284°
2026-04-27 14:27 57.00448 -147.90414 42988 ft 475 kts 284°
2026-04-27 14:28 57.02604 -148.01933 42981 ft 475 kts 284°
2026-04-27 14:28 57.04740 -148.13418 42977 ft 478 kts 284°
2026-04-27 14:29 57.06883 -148.25002 42972 ft 480 kts 284°
2026-04-27 14:29 57.09013 -148.36587 42969 ft 479 kts 284°
2026-04-27 14:30 57.11130 -148.48179 42960 ft 477 kts 284°
2026-04-27 14:30 57.13229 -148.59746 42957 ft 476 kts 284°
2026-04-27 14:31 57.15320 -148.71344 42951 ft 478 kts 283°
2026-04-27 14:31 57.17416 -148.83037 42948 ft 482 kts 283°
2026-04-27 14:32 57.19509 -148.94779 42938 ft 481 kts 283°
2026-04-27 14:32 57.21577 -149.06470 42930 ft 478 kts 283°
2026-04-27 14:33 57.23622 -149.18103 42929 ft 479 kts 283°
2026-04-27 14:33 57.25669 -149.29822 42920 ft 481 kts 283°
2026-04-27 14:34 57.27719 -149.41630 42915 ft 484 kts 283°
2026-04-27 14:34 57.29760 -149.53456 42907 ft 482 kts 283°
2026-04-27 14:35 57.31772 -149.65206 42903 ft 480 kts 283°
2026-04-27 14:35 57.33451 -149.75063 42899 ft 479 kts 282°
2026-04-27 14:36 57.35436 -149.86797 42895 ft 482 kts 282°
2026-04-27 14:36 57.37437 -149.98695 42892 ft 484 kts 282°
2026-04-27 14:37 57.39432 -150.10633 42882 ft 484 kts 282°
2026-04-27 14:37 57.41405 -150.22523 42873 ft 481 kts 282°
2026-04-27 14:38 57.43360 -150.34391 42868 ft 481 kts 282°
2026-04-27 14:38 57.45312 -150.46318 42861 ft 483 kts 282°
2026-04-27 14:39 57.47346 -150.58272 42852 ft 487 kts 284°
2026-04-27 14:39 57.49487 -150.70157 42846 ft 488 kts 283°
2026-04-27 14:40 57.51618 -150.82151 42841 ft 486 kts 283°
2026-04-27 14:40 57.53735 -150.94075 42834 ft 484 kts 283°
2026-04-27 14:41 57.55827 -151.05982 42830 ft 485 kts 283°
2026-04-27 14:41 57.57913 -151.17902 42826 ft 489 kts 283°
2026-04-27 14:42 57.60014 -151.29995 42821 ft 490 kts 283°
2026-04-27 14:42 57.62103 -151.42095 42815 ft 488 kts 282°
2026-04-27 14:43 57.64167 -151.54141 42807 ft 486 kts 282°
2026-04-27 14:43 57.66222 -151.66216 42803 ft 489 kts 282°
2026-04-27 14:44 57.68270 -151.78324 42795 ft 492 kts 282°
2026-04-27 14:44 57.70324 -151.90553 42790 ft 494 kts 282°
2026-04-27 14:45 57.72362 -152.02765 42794 ft 492 kts 282°
2026-04-27 14:45 57.74384 -152.14968 42795 ft 490 kts 282°
2026-04-27 14:46 57.76376 -152.27081 42794 ft 490 kts 282°
2026-04-27 14:46 57.78750 -152.39195 42795 ft 498 kts 290°
2026-04-27 14:47 57.81574 -152.51092 42790 ft 501 kts 289°
2026-04-27 14:47 57.84379 -152.62982 42797 ft 500 kts 289°
2026-04-27 14:48 57.87187 -152.74917 42786 ft 497 kts 289°
2026-04-27 14:48 57.91327 -152.92670 42764 ft 497 kts 289°
2026-04-27 14:49 57.94092 -153.04636 42546 ft 501 kts 289°
2026-04-27 14:49 57.95484 -153.10667 41894 ft 499 kts 288°
2026-04-27 14:49 57.96857 -153.16610 41244 ft 490 kts 288°
2026-04-27 14:50 57.98182 -153.22375 40605 ft 482 kts 288°
2026-04-27 14:50 57.99511 -153.28202 39968 ft 473 kts 287°
2026-04-27 14:50 58.00785 -153.33799 39357 ft 468 kts 287°
2026-04-27 14:50 58.02064 -153.39420 38741 ft 466 kts 286°
2026-04-27 14:51 58.03338 -153.45040 38071 ft 467 kts 286°
2026-04-27 14:51 58.04614 -153.50685 37433 ft 470 kts 285°
2026-04-27 14:51 58.05905 -153.56423 36817 ft 478 kts 285°
2026-04-27 14:51 58.07215 -153.62239 36183 ft 483 kts 285°
2026-04-27 14:52 58.08532 -153.68083 35545 ft 484 kts 285°
2026-04-27 14:52 58.09845 -153.73940 34907 ft 484 kts 285°
2026-04-27 14:52 58.11154 -153.79816 34272 ft 484 kts 285°
2026-04-27 14:52 58.12459 -153.85690 33622 ft 484 kts 284°
2026-04-27 14:53 58.13763 -153.91552 32944 ft 482 kts 284°
2026-04-27 14:53 58.15058 -153.97398 32311 ft 482 kts 284°
2026-04-27 14:53 58.16349 -154.03266 31675 ft 485 kts 284°
2026-04-27 14:53 58.17651 -154.09187 31038 ft 487 kts 284°
2026-04-27 14:54 58.18937 -154.15034 30406 ft 487 kts 284°
2026-04-27 14:54 58.20238 -154.20966 29749 ft 486 kts 283°
2026-04-27 14:54 58.21526 -154.26864 29081 ft 481 kts 283°
2026-04-27 14:54 58.22795 -154.32688 28447 ft 474 kts 283°
2026-04-27 14:55 58.24046 -154.38455 27825 ft 469 kts 283°
2026-04-27 14:55 58.25278 -154.44157 27210 ft 465 kts 283°
2026-04-27 14:55 58.26498 -154.49822 26596 ft 462 kts 283°
2026-04-27 14:55 58.27715 -154.55467 25979 ft 459 kts 283°
2026-04-27 14:56 58.28903 -154.60992 25390 ft 455 kts 282°
2026-04-27 14:56 58.30092 -154.66547 24791 ft 452 kts 282°
2026-04-27 14:56 58.31267 -154.72059 24195 ft 448 kts 282°
2026-04-27 14:56 58.32433 -154.77535 23600 ft 445 kts 282°
2026-04-27 14:57 58.33586 -154.82961 22975 ft 440 kts 282°
2026-04-27 14:57 58.34724 -154.88335 22391 ft 435 kts 282°
2026-04-27 14:57 58.35847 -154.93657 21821 ft 431 kts 282°
2026-04-27 14:57 58.36961 -154.98949 21243 ft 428 kts 282°
2026-04-27 14:58 58.38064 -155.04187 20678 ft 423 kts 282°
2026-04-27 14:58 58.39154 -155.09392 20116 ft 423 kts 283°
2026-04-27 14:58 58.40240 -155.14594 19560 ft 420 kts 283°
2026-04-27 14:58 58.41302 -155.19685 19009 ft 416 kts 283°
2026-04-27 14:59 58.42366 -155.24775 18465 ft 411 kts 283°
2026-04-27 14:59 58.43410 -155.29832 17918 ft 409 kts 284°
2026-04-27 14:59 58.44464 -155.34927 17344 ft 406 kts 284°
2026-04-27 14:59 58.45485 -155.39858 16809 ft 402 kts 284°
2026-04-27 15:00 58.46506 -155.44804 16276 ft 398 kts 284°
2026-04-27 15:00 58.47512 -155.49711 15753 ft 394 kts 284°
2026-04-27 15:00 58.48527 -155.54712 15673 ft 415 kts 284°
2026-04-27 15:00 58.49580 -155.59871 15670 ft 415 kts 285°
2026-04-27 15:01 58.50643 -155.65012 15671 ft 418 kts 285°
2026-04-27 15:01 58.51679 -155.70061 15466 ft 390 kts 284°
2026-04-27 15:01 58.52520 -155.74807 14933 ft 367 kts 280°
2026-04-27 15:01 58.53273 -155.79260 14788 ft 340 kts 280°
2026-04-27 15:02 58.54005 -155.83437 14516 ft 321 kts 280°
2026-04-27 15:02 58.54695 -155.87501 13850 ft 320 kts 279°
2026-04-27 15:02 58.55374 -155.91521 13233 ft 316 kts 280°
2026-04-27 15:02 58.56054 -155.95502 12535 ft 314 kts 280°
2026-04-27 15:03 58.56733 -155.99473 11879 ft 311 kts 281°
2026-04-27 15:03 58.57396 -156.03382 11238 ft 309 kts 280°
2026-04-27 15:03 58.58062 -156.07320 10591 ft 307 kts 281°
2026-04-27 15:03 58.58711 -156.11157 9983 ft 305 kts 281°
2026-04-27 15:04 58.59362 -156.15010 9381 ft 303 kts 281°
2026-04-27 15:04 58.60013 -156.18877 8739 ft 299 kts 281°
2026-04-27 15:04 58.60642 -156.22622 8134 ft 296 kts 281°
2026-04-27 15:04 58.61269 -156.26355 7563 ft 293 kts 282°
2026-04-27 15:05 58.61886 -156.30038 7187 ft 286 kts 281°
2026-04-27 15:05 58.62489 -156.33667 6807 ft 285 kts 281°
2026-04-27 15:05 58.63094 -156.37310 6427 ft 286 kts 282°
2026-04-27 15:05 58.63696 -156.40917 6104 ft 284 kts 282°
2026-04-27 15:06 58.64291 -156.44491 5943 ft 282 kts 282°
2026-04-27 15:06 58.64888 -156.48131 5614 ft 286 kts 282°
2026-04-27 15:06 58.65744 -156.51523 5215 ft 291 kts 304°
2026-04-27 15:06 58.67235 -156.54130 4818 ft 289 kts 320°
2026-04-27 15:07 58.68841 -156.56436 4430 ft 286 kts 321°
2026-04-27 15:07 58.70439 -156.58683 4031 ft 283 kts 322°
2026-04-27 15:07 58.72017 -156.60905 3637 ft 280 kts 322°
2026-04-27 15:07 58.73580 -156.63117 3246 ft 277 kts 322°
2026-04-27 15:08 58.75115 -156.65311 2859 ft 273 kts 322°
2026-04-27 15:08 58.76620 -156.67475 2463 ft 267 kts 322°
2026-04-27 15:08 58.78083 -156.69597 2155 ft 258 kts 322°
2026-04-27 15:08 58.79489 -156.71642 1993 ft 246 kts 322°
2026-04-27 15:09 58.80595 -156.73938 1967 ft 225 kts 293°
2026-04-27 15:09 58.80767 -156.76717 1971 ft 202 kts 250°
2026-04-27 15:09 58.80061 -156.78929 1979 ft 194 kts 223°
2026-04-27 15:09 58.79127 -156.80816 2002 ft 196 kts 222°
2026-04-27 15:10 58.78140 -156.82622 1996 ft 194 kts 208°
2026-04-27 15:10 58.76871 -156.83075 2001 ft 185 kts 169°
2026-04-27 15:10 58.75786 -156.82121 1996 ft 169 kts 140°
2026-04-27 15:10 58.74981 -156.80545 1978 ft 160 kts 138°
2026-04-27 15:11 58.74233 -156.79047 1914 ft 157 kts 135°
2026-04-27 15:11 58.73493 -156.77470 1697 ft 155 kts 134°
2026-04-27 15:11 58.72863 -156.76082 1507 ft 124 kts 135°
2026-04-27 15:11 58.72290 -156.74884 1333 ft 120 kts 135°
2026-04-27 15:12 58.71740 -156.73662 1157 ft 121 kts 135°
2026-04-27 15:12 58.71165 -156.72467 958 ft 122 kts 134°
2026-04-27 15:12 58.70606 -156.71213 763 ft 124 kts 134°
2026-04-27 15:12 58.70024 -156.70014 599 ft 124 kts 135°
2026-04-27 15:13 58.69456 -156.68753 426 ft 125 kts 134°
2026-04-27 15:13 58.68877 -156.67527 269 ft 123 kts 136°
2026-04-27 15:13 58.68305 -156.66292 69 ft 122 kts 135°
2026-04-27 15:13 58.67861 -156.65343 64 ft 64 kts 131°
2026-04-27 15:14 58.67622 -156.64831 70 ft 43 kts 132°
2026-04-27 15:14 58.67454 -156.64472 69 ft 33 kts 132°
2026-04-27 15:14 58.67334 -156.64220 71 ft 14 kts 136°
2026-04-27 15:14 58.67256 -156.64280 72 ft 16 kts 244°
2026-04-27 15:15 58.67216 -156.64488 71 ft 18 kts 279°
2026-04-27 15:15 58.67292 -156.64669 70 ft 17 kts 312°
2026-04-27 15:15 58.67350 -156.64800 62 ft 11 kts 304°
2026-04-27 15:15 58.67350 -156.64895 66 ft 6 kts 222°
2026-04-27 15:16 58.67342 -156.64926 68 ft 0 kts 246°